• en France
  • Liste des pays
  • À 7 jours
  • Température de l'eau
  • Carte satellitaire
  • Carte météo
  • Widgets météo
  • user-avatar
    Se connecter

    Météo par heure à Santiago del Estero

    Ce jour, 16 Janvier, Mardi

    Heure Température Précipitation Vent Pression Humidité
    00:00 +27°C° 0 mm 3 m/s 741 mmHg 48%
    01:00 +26°C° 0 mm 3 m/s 741 mmHg 50%
    02:00 +25°C° 0 mm 3 m/s 741 mmHg 52%
    03:00 +25°C° 0 mm 3 m/s 741 mmHg 54%
    04:00 +24°C° 0 mm 3 m/s 741 mmHg 56%
    05:00 +24°C° 0 mm 3 m/s 741 mmHg 58%
    06:00 +26°C° 0 mm 3 m/s 742 mmHg 57%
    07:00 +27°C° 0 mm 4 m/s 742 mmHg 56%
    08:00 +28°C° 0 mm 4 m/s 742 mmHg 55%
    09:00 +30°C° 0 mm 5 m/s 742 mmHg 50%
    10:00 +34°C° 0 mm 5 m/s 742 mmHg 45%
    11:00 +36°C° 0 mm 5 m/s 742 mmHg 40%
    12:00 +37°C° 0 mm 5 m/s 741 mmHg 36%
    13:00 +39°C° 0 mm 5 m/s 740 mmHg 33%
    14:00 +40°C° 0 mm 5 m/s 740 mmHg 29%
    15:00 +40°C° 0 mm 4 m/s 739 mmHg 29%
    16:00 +40°C° 0 mm 4 m/s 739 mmHg 28%
    17:00 +40°C° 0 mm 4 m/s 738 mmHg 27%
    18:00 +37°C° 0 mm 4 m/s 738 mmHg 30%
    19:00 +36°C° 0 mm 3 m/s 738 mmHg 33%
    20:00 +34°C° 0 mm 3 m/s 739 mmHg 36%
    21:00 +33°C° 0 mm 4 m/s 739 mmHg 36%
    22:00 +33°C° 0 mm 4 m/s 740 mmHg 36%
    23:00 +32°C° 0 mm 4 m/s 741 mmHg 36%

    Demain, 17 Janvier, Mercredi

    Heure Température Précipitation Vent Pression Humidité
    00:00 +30°C° 0 mm 4 m/s 740 mmHg 37%
    01:00 +30°C° 0 mm 3 m/s 740 mmHg 38%
    02:00 +29°C° 0 mm 3 m/s 740 mmHg 39%
    03:00 +29°C° 0 mm 2 m/s 739 mmHg 41%
    04:00 +28°C° 0 mm 2 m/s 739 mmHg 43%
    05:00 +28°C° 0 mm 2 m/s 739 mmHg 44%
    06:00 +29°C° 0,1 mm 2 m/s 739 mmHg 45%
    07:00 +29°C° 0,1 mm 3 m/s 740 mmHg 45%
    08:00 +30°C° 0,1 mm 4 m/s 740 mmHg 46%
    09:00 +33°C° 0 mm 3 m/s 740 mmHg 43%
    10:00 +35°C° 0 mm 3 m/s 740 mmHg 39%
    11:00 +37°C° 0 mm 2 m/s 740 mmHg 36%
    12:00 +38°C° 0 mm 2 m/s 740 mmHg 34%
    13:00 +38°C° 0 mm 2 m/s 739 mmHg 33%
    14:00 +39°C° 0 mm 2 m/s 739 mmHg 31%
    15:00 +38°C° 0,1 mm 2 m/s 739 mmHg 35%
    16:00 +37°C° 0,1 mm 3 m/s 738 mmHg 39%
    17:00 +35°C° 0,1 mm 4 m/s 738 mmHg 43%
    18:00 +33°C° 1,1 mm 4 m/s 739 mmHg 52%
    19:00 +30°C° 1,1 mm 4 m/s 740 mmHg 61%
    20:00 +28°C° 1,1 mm 5 m/s 740 mmHg 70%
    21:00 +27°C° 1,3 mm 4 m/s 741 mmHg 73%
    22:00 +26°C° 1,3 mm 4 m/s 742 mmHg 77%
    23:00 +26°C° 1,3 mm 3 m/s 742 mmHg 81%

    Après-demain, 18 Janvier, Jeudi

    Heure Température Précipitation Vent Pression Humidité
    00:00 +25°C° 1,5 mm 3 m/s 742 mmHg 83%
    01:00 +25°C° 1,5 mm 2 m/s 742 mmHg 86%
    02:00 +24°C° 1,5 mm 2 m/s 742 mmHg 89%
    03:00 +24°C° 0,1 mm 2 m/s 742 mmHg 89%
    04:00 +24°C° 0,1 mm 2 m/s 742 mmHg 89%
    05:00 +24°C° 0,1 mm 2 m/s 742 mmHg 90%
    06:00 +25°C° 0 mm 2 m/s 743 mmHg 85%
    07:00 +25°C° 0 mm 2 m/s 743 mmHg 81%
    08:00 +26°C° 0 mm 2 m/s 744 mmHg 77%
    09:00 +28°C° 0 mm 2 m/s 744 mmHg 69%
    10:00 +29°C° 0 mm 2 m/s 744 mmHg 62%
    11:00 +31°C° 0 mm 2 m/s 744 mmHg 54%
    12:00 +32°C° 0 mm 2 m/s 743 mmHg 49%
    13:00 +35°C° 0 mm 3 m/s 743 mmHg 45%
    14:00 +36°C° 0 mm 3 m/s 742 mmHg 40%
    15:00 +36°C° 0 mm 3 m/s 741 mmHg 38%
    16:00 +37°C° 0 mm 3 m/s 741 mmHg 36%
    17:00 +37°C° 0 mm 3 m/s 740 mmHg 34%
    18:00 +35°C° 0 mm 2 m/s 741 mmHg 39%
    19:00 +32°C° 0 mm 2 m/s 741 mmHg 43%
    20:00 +30°C° 0 mm 1 m/s 741 mmHg 47%
    21:00 +30°C° 0 mm 2 m/s 742 mmHg 49%
    22:00 +29°C° 0 mm 2 m/s 742 mmHg 52%
    23:00 +29°C° 0 mm 2 m/s 743 mmHg 54%

    19 Janvier, Vendredi

    Heure Température Précipitation Vent Pression Humidité
    00:00 +28°C° 0 mm 2 m/s 742 mmHg 56%
    01:00 +28°C° 0 mm 2 m/s 742 mmHg 58%
    02:00 +27°C° 0 mm 1 m/s 742 mmHg 60%
    03:00 +27°C° 0 mm 2 m/s 742 mmHg 59%
    04:00 +27°C° 0 mm 2 m/s 742 mmHg 57%
    05:00 +27°C° 0 mm 2 m/s 742 mmHg 56%
    06:00 +28°C° 0 mm 2 m/s 742 mmHg 53%
    07:00 +29°C° 0 mm 2 m/s 743 mmHg 49%
    08:00 +30°C° 0 mm 2 m/s 744 mmHg 46%
    09:00 +32°C° 0 mm 2 m/s 744 mmHg 42%
    10:00 +34°C° 0 mm 1 m/s 743 mmHg 38%
    11:00 +36°C° 0 mm 1 m/s 743 mmHg 34%
    12:00 +37°C° 0 mm 1 m/s 743 mmHg 32%
    13:00 +37°C° 0 mm 1 m/s 742 mmHg 31%
    14:00 +39°C° 0 mm 2 m/s 741 mmHg 29%
    15:00 +39°C° 0 mm 2 m/s 740 mmHg 30%
    16:00 +39°C° 0 mm 3 m/s 740 mmHg 31%
    17:00 +38°C° 0 mm 4 m/s 739 mmHg 33%
    18:00 +37°C° 0 mm 3 m/s 740 mmHg 37%
    19:00 +35°C° 0 mm 3 m/s 740 mmHg 42%
    20:00 +32°C° 0 mm 2 m/s 740 mmHg 46%
    21:00 +32°C° 0 mm 2 m/s 740 mmHg 49%
    22:00 +31°C° 0 mm 2 m/s 740 mmHg 51%
    23:00 +31°C° 0 mm 2 m/s 741 mmHg 53%

    20 Janvier, Samedi

    Heure Température Précipitation Vent Pression Humidité
    00:00 +30°C° 0,1 mm 2 m/s 740 mmHg 58%
    01:00 +29°C° 0,1 mm 2 m/s 740 mmHg 63%
    02:00 +28°C° 0,1 mm 2 m/s 739 mmHg 67%
    03:00 +28°C° 0 mm 2 m/s 739 mmHg 69%
    04:00 +27°C° 0 mm 2 m/s 739 mmHg 71%
    05:00 +27°C° 0 mm 1 m/s 739 mmHg 73%
    06:00 +28°C° 0,1 mm 2 m/s 739 mmHg 71%
    07:00 +29°C° 0,1 mm 2 m/s 740 mmHg 68%
    08:00 +30°C° 0,1 mm 3 m/s 740 mmHg 66%
    09:00 +33°C° 0,6 mm 4 m/s 740 mmHg 61%
    10:00 +34°C° 0,6 mm 4 m/s 739 mmHg 56%
    11:00 +36°C° 0,6 mm 5 m/s 739 mmHg 51%
    12:00 +36°C° 0,7 mm 5 m/s 738 mmHg 49%
    13:00 +36°C° 0,7 mm 5 m/s 738 mmHg 48%
    14:00 +38°C° 0,7 mm 6 m/s 737 mmHg 46%
    15:00 +37°C° 0,1 mm 5 m/s 736 mmHg 47%
    16:00 +37°C° 0,1 mm 5 m/s 736 mmHg 47%
    17:00 +37°C° 0,1 mm 5 m/s 736 mmHg 47%
    18:00 +36°C° 0 mm 4 m/s 736 mmHg 50%
    19:00 +35°C° 0 mm 4 m/s 736 mmHg 53%
    20:00 +34°C° 0 mm 3 m/s 736 mmHg 56%
    21:00 +31°C° 1,4 mm 3 m/s 736 mmHg 62%
    22:00 +30°C° 1,4 mm 3 m/s 736 mmHg 69%
    23:00 +29°C° 1,4 mm 3 m/s 736 mmHg 75%

    21 Janvier, Dimanche

    Heure Température Précipitation Vent Pression Humidité
    00:00 +29°C° 1,3 mm 3 m/s 736 mmHg 77%
    01:00 +29°C° 1,3 mm 3 m/s 735 mmHg 78%
    02:00 +28°C° 1,3 mm 3 m/s 735 mmHg 80%
    03:00 +28°C° 0,1 mm 3 m/s 734 mmHg 80%
    04:00 +28°C° 0,1 mm 3 m/s 734 mmHg 80%
    05:00 +27°C° 0,1 mm 3 m/s 734 mmHg 80%
    06:00 +28°C° 0 mm 3 m/s 734 mmHg 75%
    07:00 +29°C° 0 mm 4 m/s 735 mmHg 71%
    08:00 +30°C° 0 mm 4 m/s 735 mmHg 67%
    09:00 +33°C° 0,2 mm 4 m/s 735 mmHg 62%
    10:00 +34°C° 0,2 mm 3 m/s 735 mmHg 58%
    11:00 +35°C° 0,2 mm 3 m/s 736 mmHg 53%
    12:00 +36°C° 0,6 mm 3 m/s 735 mmHg 51%
    13:00 +37°C° 0,6 mm 3 m/s 735 mmHg 48%
    14:00 +38°C° 0,6 mm 3 m/s 734 mmHg 45%
    15:00 +37°C° 0 mm 4 m/s 734 mmHg 48%
    16:00 +36°C° 0 mm 4 m/s 734 mmHg 50%
    17:00 +36°C° 0 mm 5 m/s 734 mmHg 53%
    18:00 +34°C° 0 mm 5 m/s 734 mmHg 59%
    19:00 +32°C° 0 mm 5 m/s 735 mmHg 66%
    20:00 +30°C° 0 mm 5 m/s 735 mmHg 72%
    21:00 +29°C° 0,5 mm 4 m/s 736 mmHg 78%
    22:00 +27°C° 0,5 mm 3 m/s 736 mmHg 83%
    23:00 +26°C° 0,5 mm 3 m/s 737 mmHg 89%
    Voir plus